Regional Weather Roundup
Issued by NWS

Home | Current Version | Previous Version | Graphics & Text | Print | Product List | Glossary On
Versions: 1 2 3 4 5 6 7 8 9 10 11 12 13 14 15 16 17 18 19 20 21 22 23 24 25 26 27 28 29 30 31 32 33 34 35 36 37 38 39 40 41 42 43 44 45 46 47 48 49 50
000
ASUS43 KOAX 231002
RWRNE

WEATHER ROUNDUP FOR NEBRASKA
NATIONAL WEATHER SERVICE OMAHA NE
500 AM CDT MON APR 23 2018

NOTES: SATELLITE DATA IS BEING USED TO AUGMENT CLOUD COVER ABOVE
       12000 FEET.
       "FAIR" INDICATES FEW OR NO CLOUDS BELOW 12,000 FEET WITH NO
       SIGNIFICANT WEATHER AND/OR OBSTRUCTIONS TO VISIBILITY.


NEZ001>004-019>022-054>056-231100-
NEBRASKA PANHANDLE

CITY           SKY/WX    TMP DP  RH WIND       PRES   REMARKS
SCOTTSBLUFF    FAIR      37  35  92 E12       30.10S WCI  29
ALLIANCE       FAIR      32  32 100 SE6       30.10F WCI  26
CHADRON        FAIR      39  34  82 S5        30.09S
GORDON         FAIR      41  35  80 CALM      30.12S
KIMBALL        FAIR      34  33  96 SW6       30.10S WCI  29
SIDNEY         FAIR      35  32  88 S8        30.11F WCI  29
$$

NEZ057>060-069>072-079>082-231100-
SOUTHWEST NEBRASKA

CITY           SKY/WX    TMP DP  RH WIND       PRES   REMARKS
NORTH PLATTE   FAIR      31  29  92 CALM      30.17S FOG
IMPERIAL       FAIR      35  34  96 CALM      30.15F
LEXINGTON      MOCLDY    36  34  92 W3        30.17S
MCCOOK         FAIR      33  33 100 CALM      30.16S FOG
OGALLALA       FAIR      33  32  94 CALM      30.15F
$$

NEZ005>010-023>029-035>040-094-231100-
NORTH CENTRAL NEBRASKA

CITY           SKY/WX    TMP DP  RH WIND       PRES   REMARKS
VALENTINE      FAIR      40  36  86 CALM      30.14S
AINSWORTH      FAIR      36  35  94 S5        30.16S WCI  32
BROKEN BOW     FAIR      34  32  92 CALM      30.16S
O`NEILL        FAIR      44  36  74 SE3       30.18R
ORD            FAIR      31  30  96 CALM      30.17R
THEDFORD       FAIR      38  36  90 CALM      30.16S
$$

NEZ041-046>049-061>064-073>077-083>087-231100-
SOUTH CENTRAL NEBRASKA

CITY           SKY/WX    TMP DP  RH WIND       PRES   REMARKS
GRAND ISLAND   CLOUDY    45  38  76 N6        30.17S
AURORA         CLEAR     43  31  64 E6        30.17S
HASTINGS       CLOUDY    47  41  80 CALM      30.17R
HEBRON         CLEAR     39  35  85 CALM      30.16S
HOLDREGE       PTCLDY    38  35  91 NW5       30.16S WCI  34
KEARNEY        CLOUDY    44  38  79 CALM      30.18R
YORK             N/A     39  32  75 CALM      30.17S
$$

NEZ011>018-030>034-042>045-231100-
NORTHEAST NEBRASKA

CITY           SKY/WX    TMP DP  RH WIND       PRES   REMARKS
NORFOLK        CLEAR     36  32  85 CALM      30.17S
ALBION         PTCLDY    43  34  70 CALM      30.18S
BLAIR          CLEAR     46  28  47 N5        30.17S
COLUMBUS       CLEAR     39  30  70 CALM      30.19R
FREMONT        CLEAR     37  31  79 CALM      30.19R
TEKAMAH        CLEAR     34  32  92 N8        30.18F WCI  27
WAYNE          CLEAR     31  30  96 CALM      30.19S
$$

NEZ050>053-065>068-078-088>093-231100-
SOUTHEAST NEBRASKA

CITY           SKY/WX    TMP DP  RH WIND       PRES   REMARKS
LINCOLN        CLEAR     38  30  73 N5        30.18S WCI  34
OMAHA EPPLEY   CLEAR     37  28  70 N7        30.17S WCI  32
BEATRICE       PTCLDY    42  33  70 CALM      30.16S
FALLS CITY     PTCLDY    49  30  48 N5        30.13S
NEBRASKA CITY  CLOUDY    47  31  53 N3        30.16S
PLATTSMOUTH    CLEAR     44  27  52 CALM      30.17S
$$

NEZ044-045-051>053-067-231100-
OMAHA AREA

CITY           SKY/WX    TMP DP  RH WIND       PRES   REMARKS
OMAHA EPPLEY   CLEAR     37  28  70 N7        30.17S WCI  32
BLAIR          CLEAR     46  28  47 N5        30.17S
FREMONT        CLEAR     37  31  79 CALM      30.19R
MILLARD        CLEAR     44  32  63 CALM      30.17F
OFFUTT AFB     CLEAR     35  28  75 NE3       30.16S
PLATTSMOUTH    CLEAR     44  27  52 CALM      30.17S
WAHOO          FAIR      41  27  57 NW5       30.17S
$$




USA.gov is the U.S. government's official web portal to all federal, state and local government web resources and services.